Wetterdaten: aktuell Dienstag, 06.12.2022 00:54
Datum Zeit Temp. A. Feuchte A. Luftdruck Regen Wind Richtung Richtung Sonnenschein ET UV Solar Taupunkt Windchill Windben Empfang
06.12.2022 00:54 -0,4 C 98 % 1021,0 hPa 0,0 l/m 4,8 km/h (1 Bft) W 270 0 min 0,000 mm 0,0 UV-I 0 W/m -0,7 C -1,9 C 11,3 km/h (2 Bft) 91,30 %
06.12.2022 00:53 -0,4 C 98 % 1021,0 hPa 0,0 l/m 6,4 km/h (2 Bft) W-SW 247 0 min 0,000 mm 0,0 UV-I 0 W/m -0,7 C -2,6 C 9,7 km/h (2 Bft) 100,00 %
06.12.2022 00:52 -0,4 C 98 % 1021,0 hPa 0,0 l/m 6,4 km/h (2 Bft) W-SW 247 0 min 0,000 mm 0,0 UV-I 0 W/m -0,7 C -2,6 C 8,0 km/h (2 Bft) 100,00 %
06.12.2022 00:51 -0,4 C 98 % 1021,0 hPa 0,0 l/m 6,4 km/h (2 Bft) W-SW 247 0 min 0,000 mm 0,0 UV-I 0 W/m -0,7 C -2,6 C 8,0 km/h (2 Bft) 100,00 %
06.12.2022 00:50 -0,4 C 98 % 1021,0 hPa 0,0 l/m 4,8 km/h (1 Bft) W-SW 247 0 min 0,000 mm 0,0 UV-I 0 W/m -0,7 C -1,9 C 9,7 km/h (2 Bft) 100,00 %
06.12.2022 00:49 -0,4 C 98 % 1021,1 hPa 0,0 l/m 4,8 km/h (1 Bft) W 270 0 min 0,000 mm 0,0 UV-I 0 W/m -0,7 C -1,9 C 6,4 km/h (2 Bft) 100,00 %
06.12.2022 00:48 -0,4 C 98 % 1021,1 hPa 0,0 l/m 4,8 km/h (1 Bft) W 270 0 min 0,000 mm 0,0 UV-I 0 W/m -0,7 C -1,9 C 6,4 km/h (2 Bft) 100,00 %
06.12.2022 00:47 -0,4 C 98 % 1021,0 hPa 0,0 l/m 6,4 km/h (2 Bft) W 270 0 min 0,000 mm 0,0 UV-I 0 W/m -0,7 C -2,6 C 8,0 km/h (2 Bft) 91,30 %
06.12.2022 00:46 -0,4 C 98 % 1021,1 hPa 0,0 l/m 4,8 km/h (1 Bft) W 270 0 min 0,000 mm 0,0 UV-I 0 W/m -0,7 C -1,9 C 6,4 km/h (2 Bft) 100,00 %
06.12.2022 00:45 -0,4 C 98 % 1021,0 hPa 0,0 l/m 6,4 km/h (2 Bft) W 270 0 min 0,000 mm 0,0 UV-I 0 W/m -0,7 C -2,6 C 9,7 km/h (2 Bft) 95,65 %
06.12.2022 00:44 -0,4 C 98 % 1021,1 hPa 0,0 l/m 6,4 km/h (2 Bft) W-SW 247 0 min 0,000 mm 0,0 UV-I 0 W/m -0,7 C -2,6 C 6,4 km/h (2 Bft) 100,00 %
06.12.2022 00:43 -0,4 C 98 % 1021,1 hPa 0,0 l/m 6,4 km/h (2 Bft) W 270 0 min 0,000 mm 0,0 UV-I 0 W/m -0,7 C -2,6 C 9,7 km/h (2 Bft) 100,00 %
06.12.2022 00:42 -0,4 C 98 % 1021,1 hPa 0,0 l/m 6,4 km/h (2 Bft) W-SW 247 0 min 0,000 mm 0,0 UV-I 0 W/m -0,7 C -2,6 C 8,0 km/h (2 Bft) 100,00 %
06.12.2022 00:41 -0,4 C 98 % 1021,2 hPa 0,0 l/m 6,4 km/h (2 Bft) W-SW 247 0 min 0,000 mm 0,0 UV-I 0 W/m -0,7 C -2,6 C 9,7 km/h (2 Bft) 100,00 %
06.12.2022 00:40 -0,4 C 98 % 1021,2 hPa 0,0 l/m 4,8 km/h (1 Bft) W 270 0 min 0,000 mm 0,0 UV-I 0 W/m -0,7 C -1,9 C 6,4 km/h (2 Bft) 100,00 %
06.12.2022 00:39 -0,4 C 98 % 1021,1 hPa 0,0 l/m 4,8 km/h (1 Bft) W-SW 247 0 min 0,000 mm 0,0 UV-I 0 W/m -0,7 C -1,9 C 4,8 km/h (1 Bft) 91,30 %
06.12.2022 00:38 -0,4 C 98 % 1021,2 hPa 0,0 l/m 4,8 km/h (1 Bft) W-SW 247 0 min 0,000 mm 0,0 UV-I 0 W/m -0,7 C -1,9 C 6,4 km/h (2 Bft) 100,00 %
06.12.2022 00:37 -0,4 C 98 % 1021,1 hPa 0,0 l/m 6,4 km/h (2 Bft) W 270 0 min 0,000 mm 0,0 UV-I 0 W/m -0,7 C -2,6 C 11,3 km/h (2 Bft) 100,00 %
06.12.2022 00:36 -0,4 C 98 % 1021,2 hPa 0,0 l/m 3,2 km/h (1 Bft) W 270 0 min 0,000 mm 0,0 UV-I 0 W/m -0,7 C -0,4 C 6,4 km/h (2 Bft) 100,00 %
06.12.2022 00:35 -0,4 C 98 % 1021,1 hPa 0,0 l/m 3,2 km/h (1 Bft) W-NW 292 0 min 0,000 mm 0,0 UV-I 0 W/m -0,7 C -0,4 C 4,8 km/h (1 Bft) 100,00 %
06.12.2022 00:34 -0,4 C 98 % 1021,2 hPa 0,0 l/m 3,2 km/h (1 Bft) W 270 0 min 0,000 mm 0,0 UV-I 0 W/m -0,7 C -0,4 C 4,8 km/h (1 Bft) 100,00 %
06.12.2022 00:33 -0,4 C 98 % 1021,2 hPa 0,0 l/m 3,2 km/h (1 Bft) W-SW 247 0 min 0,000 mm 0,0 UV-I 0 W/m -0,7 C -0,4 C 4,8 km/h (1 Bft) 100,00 %
06.12.2022 00:32 -0,4 C 98 % 1021,2 hPa 0,0 l/m 4,8 km/h (1 Bft) W 270 0 min 0,000 mm 0,0 UV-I 0 W/m -0,7 C -1,9 C 4,8 km/h (1 Bft) 100,00 %
06.12.2022 00:31 -0,4 C 98 % 1021,2 hPa 0,0 l/m 4,8 km/h (1 Bft) W-SW 247 0 min 0,000 mm 0,0 UV-I 0 W/m -0,7 C -1,9 C 4,8 km/h (1 Bft) 100,00 %
06.12.2022 00:30 -0,4 C 98 % 1021,2 hPa 0,0 l/m 4,8 km/h (1 Bft) W-SW 247 0 min 0,000 mm 0,0 UV-I 0 W/m -0,7 C -1,9 C 6,4 km/h (2 Bft) 100,00 %
06.12.2022 00:29 -0,4 C 98 % 1021,2 hPa 0,0 l/m 4,8 km/h (1 Bft) W-SW 247 0 min 0,000 mm 0,0 UV-I 0 W/m -0,7 C -1,9 C 4,8 km/h (1 Bft) 100,00 %
06.12.2022 00:28 -0,4 C 98 % 1021,2 hPa 0,0 l/m 6,4 km/h (2 Bft) W 270 0 min 0,000 mm 0,0 UV-I 0 W/m -0,7 C -2,6 C 9,7 km/h (2 Bft) 95,65 %
06.12.2022 00:27 -0,4 C 98 % 1021,2 hPa 0,0 l/m 4,8 km/h (1 Bft) W-SW 247 0 min 0,000 mm 0,0 UV-I 0 W/m -0,7 C -1,9 C 9,7 km/h (2 Bft) 95,65 %
06.12.2022 00:26 -0,4 C 98 % 1021,2 hPa 0,0 l/m 6,4 km/h (2 Bft) W-SW 247 0 min 0,000 mm 0,0 UV-I 0 W/m -0,7 C -2,6 C 8,0 km/h (2 Bft) 100,00 %
06.12.2022 00:25 -0,4 C 98 % 1021,2 hPa 0,0 l/m 6,4 km/h (2 Bft) W-SW 247 0 min 0,000 mm 0,0 UV-I 0 W/m -0,7 C -2,6 C 8,0 km/h (2 Bft) 100,00 %
06.12.2022 00:24 -0,4 C 98 % 1021,2 hPa 0,0 l/m 4,8 km/h (1 Bft) W-SW 247 0 min 0,000 mm 0,0 UV-I 0 W/m -0,7 C -1,9 C 6,4 km/h (2 Bft) 95,65 %
06.12.2022 00:23 -0,4 C 98 % 1021,1 hPa 0,0 l/m 6,4 km/h (2 Bft) W-SW 247 0 min 0,000 mm 0,0 UV-I 0 W/m -0,7 C -2,6 C 6,4 km/h (2 Bft) 100,00 %
06.12.2022 00:22 -0,4 C 98 % 1021,2 hPa 0,0 l/m 4,8 km/h (1 Bft) W-SW 247 0 min 0,000 mm 0,0 UV-I 0 W/m -0,7 C -1,9 C 9,7 km/h (2 Bft) 100,00 %
06.12.2022 00:21 -0,4 C 98 % 1021,2 hPa 0,0 l/m 4,8 km/h (1 Bft) W-SW 247 0 min 0,000 mm 0,0 UV-I 0 W/m -0,7 C -1,9 C 6,4 km/h (2 Bft) 95,65 %
06.12.2022 00:20 -0,4 C 98 % 1021,1 hPa 0,0 l/m 4,8 km/h (1 Bft) W-NW 292 0 min 0,000 mm 0,0 UV-I 0 W/m -0,7 C -1,9 C 4,8 km/h (1 Bft) 100,00 %
06.12.2022 00:19 -0,4 C 98 % 1021,2 hPa 0,0 l/m 4,8 km/h (1 Bft) W 270 0 min 0,000 mm 0,0 UV-I 0 W/m -0,7 C -1,9 C 9,7 km/h (2 Bft) 100,00 %
06.12.2022 00:18 -0,4 C 98 % 1021,2 hPa 0,0 l/m 4,8 km/h (1 Bft) W 270 0 min 0,000 mm 0,0 UV-I 0 W/m -0,7 C -1,9 C 6,4 km/h (2 Bft) 100,00 %
06.12.2022 00:17 -0,4 C 98 % 1021,1 hPa 0,0 l/m 3,2 km/h (1 Bft) W 270 0 min 0,000 mm 0,0 UV-I 0 W/m -0,7 C -0,4 C 6,4 km/h (2 Bft) 100,00 %
06.12.2022 00:16 -0,4 C 98 % 1021,2 hPa 0,0 l/m 4,8 km/h (1 Bft) W 270 0 min 0,000 mm 0,0 UV-I 0 W/m -0,7 C -1,9 C 4,8 km/h (1 Bft) 95,65 %
06.12.2022 00:15 -0,4 C 98 % 1021,2 hPa 0,0 l/m 4,8 km/h (1 Bft) W 270 0 min 0,000 mm 0,0 UV-I 0 W/m -0,7 C -1,9 C 4,8 km/h (1 Bft) 100,00 %
06.12.2022 00:14 -0,4 C 98 % 1021,2 hPa 0,0 l/m 4,8 km/h (1 Bft) W-NW 292 0 min 0,000 mm 0,0 UV-I 0 W/m -0,7 C -1,9 C 6,4 km/h (2 Bft) 100,00 %
06.12.2022 00:13 -0,4 C 98 % 1021,3 hPa 0,0 l/m 4,8 km/h (1 Bft) W-SW 247 0 min 0,000 mm 0,0 UV-I 0 W/m -0,7 C -1,9 C 4,8 km/h (1 Bft) 100,00 %
06.12.2022 00:12 -0,4 C 98 % 1021,3 hPa 0,0 l/m 4,8 km/h (1 Bft) W 270 0 min 0,000 mm 0,0 UV-I 0 W/m -0,7 C -1,9 C 6,4 km/h (2 Bft) 100,00 %
06.12.2022 00:11 -0,4 C 98 % 1021,3 hPa 0,0 l/m 4,8 km/h (1 Bft) W-NW 292 0 min 0,000 mm 0,0 UV-I 0 W/m -0,7 C -1,9 C 6,4 km/h (2 Bft) 91,30 %
06.12.2022 00:10 -0,4 C 98 % 1021,3 hPa 0,0 l/m 6,4 km/h (2 Bft) W 270 0 min 0,000 mm 0,0 UV-I 0 W/m -0,7 C -2,6 C 11,3 km/h (2 Bft) 100,00 %
06.12.2022 00:09 -0,4 C 98 % 1021,2 hPa 0,0 l/m 4,8 km/h (1 Bft) W-SW 247 0 min 0,000 mm 0,0 UV-I 0 W/m -0,7 C -1,9 C 6,4 km/h (2 Bft) 100,00 %
06.12.2022 00:08 -0,4 C 98 % 1021,3 hPa 0,0 l/m 3,2 km/h (1 Bft) W-SW 247 0 min 0,000 mm 0,0 UV-I 0 W/m -0,7 C -0,4 C 4,8 km/h (1 Bft) 95,65 %
06.12.2022 00:07 -0,4 C 98 % 1021,3 hPa 0,0 l/m 4,8 km/h (1 Bft) W 270 0 min 0,000 mm 0,0 UV-I 0 W/m -0,7 C -1,9 C 6,4 km/h (2 Bft) 100,00 %
06.12.2022 00:06 -0,4 C 98 % 1021,5 hPa 0,0 l/m 4,8 km/h (1 Bft) W-NW 292 0 min 0,000 mm 0,0 UV-I 0 W/m -0,7 C -1,9 C 6,4 km/h (2 Bft) 95,65 %
06.12.2022 00:05 -0,4 C 98 % 1021,3 hPa 0,0 l/m 3,2 km/h (1 Bft) W 270 0 min 0,000 mm 0,0 UV-I 0 W/m -0,7 C -0,4 C 6,4 km/h (2 Bft) 100,00 %
06.12.2022 00:04 -0,4 C 98 % 1021,4 hPa 0,0 l/m 4,8 km/h (1 Bft) W 270 0 min 0,000 mm 0,0 UV-I 0 W/m -0,7 C -1,9 C 6,4 km/h (2 Bft) 100,00 %
06.12.2022 00:03 -0,4 C 98 % 1021,3 hPa 0,0 l/m 6,4 km/h (2 Bft) W 270 0 min 0,000 mm 0,0 UV-I 0 W/m -0,7 C -2,6 C 9,7 km/h (2 Bft) 100,00 %
06.12.2022 00:02 -0,4 C 98 % 1021,4 hPa 0,0 l/m 6,4 km/h (2 Bft) W-SW 247 0 min 0,000 mm 0,0 UV-I 0 W/m -0,7 C -2,6 C 8,0 km/h (2 Bft) 100,00 %
06.12.2022 00:01 -0,4 C 98 % 1021,4 hPa 0,0 l/m 4,8 km/h (1 Bft) W-SW 247 0 min 0,000 mm 0,0 UV-I 0 W/m -0,7 C -1,9 C 6,4 km/h (2 Bft) 95,65 %
06.12.2022 00:00 -0,4 C 98 % 1021,4 hPa 0,0 l/m 4,8 km/h (1 Bft) W 270 0 min 0,000 mm 0,0 UV-I 0 W/m -0,7 C -1,9 C 6,4 km/h (2 Bft) 100,00 %
_ Min-Zeit 00:02 00:00 00:45 - 00:05 - - - - - - 00:00 00:02 00:08 00:11
Minimum _ -0,5 C 98 % 1021,0 hPa - 3,2 km/h (1 Bft) - - - - - - -0,7 C -2,6 C 4,8 km/h (1 Bft) 91,30 %
_ Max-Zeit 00:00 00:00 00:06 00:00 00:02 - - 00:00 00:00 00:00 00:00 00:00 00:05 00:10 00:00
Maximum _ -0,4 C 98 % 1021,5 hPa 0,0 l/m 6,4 km/h
W-SW (2 Bft)
- - 0 min 0,000 mm 0,0 UV-I 0 W/m -0,7 C -0,4 C 11,3 km/h
W-SW (2 Bft)
100,00 %
Durchschnitt _ -0,4 C 98 % 1021,2 hPa #0,0 l/m 5,1 km/h (1 Bft) W-SW - #0 min. #0,000 mm 0,0 UV-I 0 W/m -0,7 C -2,0 C 7,1 km/h (2 Bft) 98,66 %